Tracking 27402 objects as of 3-Jun-2023
HD Live streaming from Space Station
objects crossing your sky now

STARLINK-3060

Track STARLINK-3060 now!
10-day predictions
STARLINK-3060 is classified as:


NORAD ID: 49155
Int'l Code: 2021-082AB
Perigee: 577.0 km
Apogee: 581.4 km
Inclination: 70.0 °
Period: 96.1 minutes
Semi major axis: 6950 km
RCS: Unknown
Launch date: September 14, 2021
Source: United States (US)
Launch site: AIR FORCE WESTERN TEST RANGE (AFWTR)
Your satellite tracking list
Your tracking list is empty




NASA's NSSDC Master Catalog

Two Line Element Set (TLE):
1 49155U 21082AB  23153.55029931 -.00000459  00000-0 -30705-4 0  9994
2 49155  69.9995 283.8980 0003121 270.7257  89.3544 14.98328073 96584
Source of the keplerian elements: AFSPC